Vorticity
-60 28 23 22 31 15 11 12 3 17 -1 27 11 7 2 2 6 26 18 -9 32 20
47 15 -2 -12 -5 -4 12 51 11 -35 14 -3 20 22 30 30 -7 36 24 8 26 12
14 38 17 2 2 6 7 2 5 23 35 1 16 -3 -8 16 8 15 -9 -4 21 23
3 2 4 5 5 5 6 8 4 4 2 5 19 18 14 12 3 7 9 19 -8 45
6 6 6 6 6 6 6 6 6 6 6 6 6 6 5 4 2 18 8 35 3 -9
8 8 8 8 8 8 8 8 8 8 7 6 6 5 5 6 7 6 5 5 6 7
8 8 8 8 7 7 7 6 6 6 6 6 6 6 7 6 6 5 5 5 6 6
9 9 8 8 8 8 8 7 8 8 9 9 10 9 9 8 6 5 5 5 5 5
7 5 4 4 4 4 4 4 3 4 4 4 5 5 4 5 6 8 11 12 9 7
3 4 5 5 5 5 6 8 10 12 14 13 13 12 11 11 11 10 8 8 9 13
6 7 6 6 7 9 11 14 17 16 14 13 13 13 12 12 11 10 10 10 9 7
5 6 6 8 10 11 13 13 12 10 10 10 11 11 10 11 12 12 14 15 14 16
7 9 11 12 13 13 14 13 13 10 12 10 11 11 12 12 12 12 13 13 14 14
9 11 11 10 10 12 11 10 10 11 12 13 14 15 17 16 14 13 14 15 17 16
Height
3034 3032 3031 3035 3033 3033 3033 3030 3029 3027 3024 3020 3021 3019 3022 3022 3021 3021 3023 3024 3025 3025
3033 3032 3030 3031 3030 3029 3028 3025 3022 3020 3019 3018 3017 3017 3017 3016 3014 3016 3017 3017 3018 3018
3028 3027 3028 3028 3026 3026 3026 3023 3019 3015 3014 3013 3010 3010 3011 3011 3010 3010 3010 3010 3010 3011
3030 3029 3028 3028 3026 3024 3023 3021 3018 3016 3013 3011 3008 3005 3005 3005 3004 3005 3004 3004 3004 3004
3031 3030 3028 3027 3025 3022 3019 3016 3014 3013 3010 3008 3005 3004 3003 3002 3001 3000 3000 2999 2999 2998
3028 3026 3024 3022 3020 3018 3015 3013 3010 3008 3005 3003 3001 2999 2998 2997 2996 2995 2994 2993 2992 2992
3025 3023 3020 3018 3015 3012 3010 3007 3004 3001 2999 2997 2995 2993 2991 2989 2987 2986 2984 2983 2983 2983
3022 3019 3016 3014 3011 3008 3005 3002 2999 2996 2993 2990 2987 2985 2982 2981 2979 2977 2976 2974 2973 2972
3016 3013 3009 3005 3001 2997 2993 2990 2985 2981 2978 2975 2972 2970 2968 2967 2966 2965 2965 2964 2963 2961
3009 3006 3002 2999 2995 2992 2988 2984 2980 2976 2972 2969 2964 2960 2957 2954 2952 2950 2948 2946 2945 2946
3005 3001 2997 2992 2988 2984 2980 2976 2972 2968 2964 2961 2957 2953 2949 2945 2942 2940 2937 2934 2932 2930
2995 2991 2988 2983 2979 2974 2971 2967 2962 2958 2953 2949 2946 2941 2937 2933 2930 2928 2927 2926 2923 2920
2988 2984 2979 2974 2969 2965 2960 2956 2952 2948 2943 2939 2934 2932 2927 2923 2919 2916 2914 2912 2910 2907
2978 2973 2968 2963 2958 2952 2948 2943 2939 2935 2932 2926 2921 2917 2915 2911 2907 2905 2903 2902 2900 2896